Hourly Data Report for March 17, 2019

MIRAMICHI RCS
NEW BRUNSWICK
Current Station Operator: ECCC - MSC

47°00'34.000" N
65°27'54.000" W
33.00 m
8100989
71744
ACQ

Download Data

Hourly Data (March 2019)
Hourly Data Report for March 17, 2019
TIME
LST
Temp Definition
°C
Dew Point Definition
°C
Rel Hum Definition
%
Precip. Amount Definition
mm

Wind Dir Definition
10's deg

Wind Spd Definition
km/h
Visibility Definition
km
Stn Press Definition
kPa
Hmdx Definition


Wind Chill Definition


Weather Definition


00:00 -4.9 -13.0 53 0.0 28 28   99.83   -13 LegendNANA
01:00 -5.7 -14.5 50 0.0 28 38   99.91   -15 LegendNANA
02:00 -6.2 -14.5 52 0.0 28 29   100.00   -14 LegendNANA
03:00 -6.4 -14.6 52 0.0 27 25   100.03   -14 LegendNANA
04:00 -6.6 -14.8 52 0.0 28 24   100.08   -14 LegendNANA
05:00 -7.0 -15.2 52 0.0 28 24   100.15   -15 LegendNANA
06:00 -7.8 -16.6 49 0.0 29 25   100.26   -16 LegendNANA
07:00 -8.4 -16.7 51 0.0 29 22   100.33   -16 LegendNANA
08:00 -7.9 -16.5 50 0.0 29 28   100.42   -17 LegendNANA
09:00 -7.0 -16.0 49 0.0 28 26   100.44   -15 LegendNANA
10:00 -6.6 -15.8 48 0.0 28 30   100.46   -15 LegendNANA
11:00 -5.7 -16.5 42 0.0 28 31   100.47   -14 LegendNANA
12:00 -4.6 -16.0 40 0.0 27 29   100.48   -12 LegendNANA
13:00 -3.9 -15.8 39 0.0 27 31   100.47   -12 LegendNANA
14:00 -3.2 -15.5 38 0.0 28 27   100.46   -10 LegendNANA
15:00 -3.1 -15.7 37 0.0 26 31   100.47   -11 LegendNANA
16:00 -3.2 -15.6 38 0.0 25 32   100.50   -11 LegendNANA
17:00 -3.8 -15.7 39 0.0 28 29   100.55   -11 LegendNANA
18:00 -4.4 -15.7 41 0.0 28 22   100.66   -11 LegendNANA
19:00 -5.4 -16.4 42 0.0 27 17   100.76   -11 LegendNANA
20:00 -6.1 -16.1 45 0.0 26 18   100.84   -13 LegendNANA
21:00 -6.9 -15.5 50 0.0 25 14   100.90   -13 LegendNANA
22:00 -8.1 -15.8 54 0.0 24 12   100.94   -14 LegendNANA
23:00 -9.2 -15.8 59 0.0 23 12   100.96   -15 LegendNANA

Notes on Data Quality.

Legend

  • E = Estimated
  • M = Missing
  • NA = Not Available*
  • [empty] = Indicates an unobserved value
Date modified: